"Pseudo-MPEC" for P10PLIR

Created 2019 Jul 13 13:07:12 UT using Find_Orb

Click here for an explanation of pseudo-MPECs

 
 Astrometry: 
     P10PLIR  C2019 07 10iabb4Ycy^t`y:;xQ/NCRlLX_[+3Da+aPG#8[64uPNNjjLuSTs+FyF51
     P10PLIR  C2019 07 10=_ZLXcWsm$v,9f.'a^Vi(;AstrometryWredacted;So*8o)UTc1F51
     P10PLIR  C2019 07 10uO8nBpDNd16kLN!0!1h.[LF*VU9sAsop1=8\bAFMWkS,clickmIHF51
     P10PLIR  C2019 07 105^1p1Wggm:.g/XRMp4i7ZpI#UM'Kud`2Orfp_Z0GG@%yGOhjA:j(F51
     P10PLIR  C2019 07 10=yUD$+`hkL=c93MD#N('?2o/Sr#wTtv0?oYC:`:XS(Z8.D@5=,+_F51
     P10PLIR  C2019 07 10W)\1#2uv3jV0_pJ=IRQOXi]VdLspWherey04(l`%u\l@l%bv1Y':F51
     P10PLIR ^C2019 07 12.54137023 40 57.513-09 42 10.71   ~7CK7 21.01GVNEOCP568
     P10PLIR ^C2019 07 12.54375323 40 57.894-09 41 47.17   ~7CK7 20.78GVNEOCP568
     P10PLIR ^C2019 07 12.54493223 40 58.081-09 41 35.56   ~7CK7 20.70GVNEOCP568
     P10PLIR KC2019 07 13kKQH5$A_5uo$W$=uSTAsFCRc#NN60i(for[tPpxK/hF%l$uJAp#OH21
     P10PLIR KC2019 07 137wv4)972g(B00#+`M]1\K2;=66g1`kawB7eKPW]=_%No\Y//ptFBH21
     P10PLIR KC2019 07 13,a9BR'.8LojH,/s6f1S%j[NMn]6e2\ax;Pexplanation[#B-rf/H21

Station data:
(568) Mauna Kea  (N19.826116 W155.472200)  US/Hawaii.
(F51) Pan-STARRS 1, Haleakala  (N20.707235 W156.255910)  US/Hawaii.
   Observers N. Primak, A. Schultz, S. Watters, J. Thiel, T. Goggia. Measurer
   PS1 Science Consortium. 1.8-m Ritchey-Chrétien + CCD.
(H21) Astronomical Research Observatory, Westfield  (N39.483057 W87.968270)
   US/Illinois. 0.76-m f/3.0 astrograph + CCD.

Orbital elements:  P10PLIR
   Perihelion 2019 Aug 6.794997 +/- 0.475 TT = 19:04:47 (JD 2458702.294997)
Epoch 2019 Jul 13.0 TT = JDT 2458677.5   Earth MOID: 0.0580   AutoNEOCP
M 348.47810330 +/- 0.8              (J2000 ecliptic)
n   0.46468635 +/- 0.0265           Peri.   23.25131 +/- 0.38
a   1.65080623 +/- 0.0633           Node   298.73658 +/- 0.23
e   0.3613104 +/- 0.0229            Incl.   16.02624 +/- 0.54
P   2.12/774.70d           H 23.6   G  0.15   U 10.3  
q 1.05435261 +/- 0.0024    Q 2.24725984 +/- 0.128
From 12 observations 2019 July 10-13; mean residual 0".29
Residuals in arcseconds: 
190710 F51  .37-  .92-    190710 F51  .25-  .37-    190712 568  .10+  .04-    
190710 F51  .05+  .30+    190710 F51  .04+  .21+    190713 H21  .13+  .22+    
190710 F51  .09+  .24+    190712 568  .10+  .05-    190713 H21  .19-  .01-    
190710 F51  .30+  .59+    190712 568  .11+  .02-    190713 H21  .16-  .14-    

Ephemerides (geocentric):
Date (UTC) HH   RA              Dec         delta   r     elong  mag " sig PA
---- -- -- --  -------------   -----------  ------ ------ -----  --- ---- ---
2019 07 13 13  23 43 57.906   -06 54 56.89  .13050 1.0819 116.9 21.4 2.55 154
2019 07 13 14  23 44 05.441   -06 47 55.84  .13045 1.0818 116.9 21.4 2.61 155
2019 07 13 15  23 44 12.971   -06 40 54.48  .13039 1.0818 116.9 21.4 2.66 156
2019 07 13 16  23 44 20.498   -06 33 52.79  .13034 1.0817 116.8 21.4 2.72 156
2019 07 13 17  23 44 28.019   -06 26 50.79  .13028 1.0816 116.8 21.4 2.77 157
2019 07 13 18  23 44 35.536   -06 19 48.47  .13023 1.0815 116.8 21.4 2.83 157
2019 07 13 19  23 44 43.049   -06 12 45.85  .13018 1.0814 116.7 21.4 2.89 158
2019 07 13 20  23 44 50.558   -06 05 42.92  .13012 1.0813 116.7 21.4 2.96 158
2019 07 13 21  23 44 58.061   -05 58 39.68  .13007 1.0812 116.7 21.4 3.02 159
2019 07 13 22  23 45 05.561   -05 51 36.15  .13002 1.0811 116.6 21.4 3.09 160
2019 07 13 23  23 45 13.056   -05 44 32.32  .12997 1.0810 116.6 21.4 3.15 160
2019 07 14 00  23 45 20.546   -05 37 28.20  .12992 1.0809 116.6 21.4 3.22 161
2019 07 14 01  23 45 28.032   -05 30 23.80  .12987 1.0808 116.5 21.4 3.29 161
2019 07 14 02  23 45 35.514   -05 23 19.10  .12982 1.0807 116.5 21.4 3.36 162
2019 07 14 03  23 45 42.991   -05 16 14.13  .12977 1.0807 116.5 21.4 3.44 162
2019 07 14 04  23 45 50.464   -05 09 08.88  .12973 1.0806 116.4 21.4 3.51 163
2019 07 14 05  23 45 57.932   -05 02 03.35  .12968 1.0805 116.4 21.4 3.59 163
2019 07 14 06  23 46 05.396   -04 54 57.56  .12963 1.0804 116.4 21.4 3.67 164
2019 07 14 07  23 46 12.856   -04 47 51.50  .12959 1.0803 116.3 21.4 3.75 164
2019 07 14 08  23 46 20.311   -04 40 45.17  .12954 1.0802 116.3 21.4 3.83 165
2019 07 14 09  23 46 27.762   -04 33 38.59  .12950 1.0801 116.3 21.4 3.91 165
2019 07 14 10  23 46 35.208   -04 26 31.75  .12945 1.0800 116.2 21.4 4.00 166
2019 07 14 11  23 46 42.650   -04 19 24.66  .12941 1.0799 116.2 21.4 4.09 166
2019 07 14 12  23 46 50.088   -04 12 17.32  .12937 1.0798 116.2 21.4 4.18 167
2019 07 14 13  23 46 57.521   -04 05 09.74  .12932 1.0798 116.1 21.4 4.27 167
2019 07 14 14  23 47 04.950   -03 58 01.92  .12928 1.0797 116.1 21.4 4.36 168
2019 07 14 15  23 47 12.375   -03 50 53.86  .12924 1.0796 116.1 21.4 4.45 168
2019 07 14 16  23 47 19.795   -03 43 45.57  .12920 1.0795 116.0 21.4 4.55 169
2019 07 14 17  23 47 27.210   -03 36 37.05  .12916 1.0794 116.0 21.4 4.65 169
2019 07 14 18  23 47 34.622   -03 29 28.30  .12912 1.0793 116.0 21.4 4.74 169
2019 07 14 19  23 47 42.029   -03 22 19.33  .12908 1.0792 115.9 21.4 4.85 170
2019 07 14 20  23 47 49.432   -03 15 10.15  .12904 1.0791 115.9 21.4 4.95 170
2019 07 14 21  23 47 56.830   -03 08 00.75  .12900 1.0791 115.9 21.4 5.05 170
2019 07 14 22  23 48 04.224   -03 00 51.14  .12897 1.0790 115.8 21.4 5.16 171
2019 07 14 23  23 48 11.614   -02 53 41.32  .12893 1.0789 115.8 21.4 5.27 171
2019 07 15 00  23 48 18.999   -02 46 31.31  .12889 1.0788 115.8 21.4 5.38 172
2019 07 15 01  23 48 26.380   -02 39 21.09  .12886 1.0787 115.7 21.4 5.49 172
2019 07 15 02  23 48 33.757   -02 32 10.68  .12882 1.0786 115.7 21.4 5.60 172
2019 07 15 03  23 48 41.129   -02 25 00.08  .12879 1.0785 115.7 21.4 5.72 173
2019 07 15 04  23 48 48.497   -02 17 49.29  .12876 1.0784 115.6 21.4 5.83 173
2019 07 15 05  23 48 55.861   -02 10 38.32  .12872 1.0784 115.6 21.4 5.95 173
2019 07 15 06  23 49 03.221   -02 03 27.17  .12869 1.0783 115.6 21.4 6.07 174
2019 07 15 07  23 49 10.576   -01 56 15.85  .12866 1.0782 115.5 21.4 6.19 174
2019 07 15 08  23 49 17.927   -01 49 04.35  .12863 1.0781 115.5 21.4 6.32 174
2019 07 15 09  23 49 25.273   -01 41 52.69  .12860 1.0780 115.5 21.4 6.44 175
2019 07 15 10  23 49 32.616   -01 34 40.87  .12857 1.0779 115.4 21.4 6.57 175
2019 07 15 11  23 49 39.954   -01 27 28.88  .12854 1.0778 115.4 21.4 6.70 175
2019 07 15 12  23 49 47.287   -01 20 16.74  .12851 1.0778 115.3 21.4 6.83 175